Location: Pcim
(49.7500°N, 19.9670°E)
Time: 19:46:14
(UTC+02:00)

AO-27 - Pass Details

Date: 19 April 2024
Orbit: 783 x 797 km, 98.8° (Epoch: 28 May)

Event Time Altitude Azimuth Distance (km) Brightness Sun altitude
Exits shadow 22:36:41 - 222° (SW) 3,108 10.6 -23.1°
Reaches altitude 10° 22:39:46 10° 246° (WSW) 2,367 10.2 -23.3°
Maximum altitude 22:42:11 13° 274° (W) 2,153 10.3 -23.5°
Drops below altitude 10° 22:44:37 10° 302° (WNW) 2,376 11.0 -23.7°
Sets 22:48:21 0° 329° (NNW) 3,313 12.3 -24.0°
